EHI
5 4 1 3 9 16 21 18 10 5 4 2 0 0 0 0 1 1 2 9 28 51 65 65 61 52 38 27 16 7 4 3 3 2 1 0 0 0 0 0 0 0 0
21 16 9 10 20 28 28 21 13 7 5 3 1 0 0 0 0 0 1 7 23 45 59 58 52 47 37 25 15 8 6 5 4 3 1 0 0 0 0 0 0 0 0
52 43 31 30 41 46 41 32 22 13 8 5 3 1 0 1 1 1 0 3 12 28 41 41 38 36 32 21 12 8 6 6 6 4 2 1 0 0 0 0 0 0 0
77 71 62 59 64 64 56 46 35 21 12 8 5 1 0 1 2 1 0 0 3 9 16 22 23 23 23 19 12 6 5 7 8 6 3 1 0 0 0 0 0 0 0
83 83 82 79 78 73 65 53 40 27 17 11 6 2 0 1 1 1 0 0 0 1 3 7 12 13 14 15 11 5 4 6 8 7 4 1 0 0 0 0 0 0 0
71 76 81 82 80 73 64 52 39 28 20 12 7 3 0 0 1 0 0 0 1 2 2 3 5 6 8 8 5 3 4 4 6 7 5 2 0 0 0 0 0 0 0
54 63 71 76 76 69 59 48 38 30 22 13 6 2 0 0 0 0 0 1 1 2 2 2 3 3 3 3 2 1 3 3 4 4 2 1 0 0 0 0 0 0 0
47 53 62 68 71 66 56 45 37 32 26 16 8 3 0 0 0 0 0 1 1 1 0 1 2 1 1 1 1 0 1 2 3 2 0 0 0 0 0 0 0 0 0
42 46 52 59 63 63 55 45 37 34 29 19 10 4 1 0 0 0 0 1 1 0 0 1 1 1 0 0 0 0 0 1 1 1 0 0 0 0 0 0 0 0 0
32 35 43 50 56 56 52 45 40 34 28 20 12 6 2 0 0 0 0 0 0 0 0 0 0 0 0 0 0 0 0 0 0 0 0 0 0 0 0 0 0 0 0
17 21 27 35 42 45 44 42 37 31 26 19 13 8 3 1 1 0 0 0 0 0 0 0 0 0 0 0 0 0 0 0 0 0 0 0 0 0 0 0 0 0 0
5 6 9 14 21 27 32 32 29 25 21 16 13 9 5 3 2 1 0 0 0 0 0 0 0 0 0 0 1 0 0 0 0 0 0 0 0 0 0 0 0 0 0
0 0 0 2 6 11 17 22 22 18 15 12 10 8 6 4 3 2 0 0 0 0 0 0 0 0 0 0 0 0 0 0 0 0 0 0 0 0 0 0 0 0 0
0 0 0 0 1 3 7 13 15 11 8 6 6 6 5 4 2 1 0 0 0 0 0 0 0 0 0 0 0 0 0 0 0 0 0 0 0 0 0 0 0 0 0
0 0 0 0 0 1 3 6 7 5 2 1 1 2 3 2 1 0 0 0 0 0 0 0 0 0 0 0 0 0 0 0 0 0 0 0 0 0 0 0 0 0 0
0 0 0 0 0 0 1 1 2 1 1 0 0 0 1 1 0 0 0 0 0 0 0 0 0 0 0 0 0 0 0 0 0 0 0 0 0 0 0 0 0 0 0
0 0 0 0 0 0 0 0 0 0 0 0 0 0 0 0 0 0 0 0 0 0 0 0 0 0 0 0 0 0 0 0 0 0 0 0 0 0 0 0 0 0 0
0 0 0 0 0 0 0 0 0 0 0 0 0 0 0 0 0 0 0 0 0 0 0 0 0 0 0 0 0 0 0 0 0 0 0 0 0 0 0 0 0 0 0
0 0 0 0 0 0 0 0 0 0 0 0 0 0 0 0 0 0 0 0 0 0 0 0 0 0 0 0 0 0 0 0 0 0 0 0 0 0 0 0 0 0 0
0 0 0 0 0 0 0 0 0 0 0 0 0 0 0 0 0 0 0 0 0 0 0 0 0 0 0 0 0 0 0 0 0 0 0 0 0 0 0 0 0 0 0
0 0 0 0 0 0 0 0 0 0 0 0 0 0 0 0 0 0 0 0 0 0 0 0 0 0 0 0 0 0 0 0 0 0 0 0 0 0 0 0 0 0 0
0 0 0 0 0 0 0 0 0 0 0 0 0 0 0 0 0 0 0 0 0 0 0 0 0 0 0 0 0 0 0 0 0 0 0 0 0 0 0 0 0 0 0
0 0 0 0 0 0 0 0 0 0 0 0 0 0 0 0 0 0 0 0 0 0 0 0 0 0 0 0 0 0 0 0 0 0 0 0 0 0 0 0 0 0 0
0 0 0 0 0 0 0 0 0 0 0 0 0 0 0 0 0 0 0 0 0 0 0 0 0 0 0 0 0 0 0 0 0 0 0 0 0 0 0 0 0 0 0
0 0 0 0 0 0 0 0 0 0 0 0 0 0 0 0 0 0 0 0 0 0 0 0 0 0 0 0 0 0 0 0 0 0 0 0 0 0 0 0 0 0 0
0 0 0 0 0 0 0 0 0 0 0 0 0 0 0 0 0 0 0 0 0 0 0 0 0 0 0 0 0 0 0 0 0 0 0 0 0 0 0 0 0 0 0
Wind_Speed
8 8 6 6 7 6 7 7 7 8 8 9 9 10 10 9 9 8 6 14 16 16 17 19 18 18 17 16 16 15 15 15 14 14 15 16 17 17 17 17 17 16 16
9 8 7 6 7 7 7 7 9 8 8 7 9 9 9 8 8 9 7 9 14 16 18 19 19 18 18 17 16 16 15 15 14 14 15 15 16 16 16 17 17 17 16
11 9 8 7 7 7 8 7 8 6 6 7 7 7 6 6 6 6 6 5 6 13 18 18 18 18 17 17 17 16 15 15 14 14 14 15 15 15 15 16 16 16 16
12 9 8 8 7 6 6 6 5 5 5 5 5 5 4 4 5 5 5 5 4 5 10 17 18 17 17 18 18 17 15 15 14 14 14 14 14 14 15 15 16 16 16
11 9 8 7 6 5 5 6 5 4 5 5 5 5 4 3 4 5 5 5 5 5 5 9 15 17 17 18 18 17 15 15 14 15 15 15 14 14 14 15 15 15 15
9 9 7 7 6 4 4 4 4 4 4 4 5 5 4 4 4 5 6 5 5 6 5 6 6 9 15 16 16 16 16 14 14 14 15 15 15 14 14 15 15 15 16
7 7 7 6 6 6 6 6 5 5 5 3 2 3 4 5 6 5 5 4 5 4 4 5 5 5 5 11 14 15 15 15 13 13 14 14 14 14 14 15 15 15 16
6 6 7 7 7 6 7 7 6 5 5 5 4 3 3 4 4 5 4 4 4 3 4 5 4 5 4 3 6 12 13 13 12 12 12 13 13 14 14 15 15 15 16
7 7 7 8 8 7 7 9 8 9 7 6 5 5 4 5 3 2 3 3 2 2 3 3 4 4 5 4 4 7 9 9 8 8 9 10 11 12 14 14 15 15 16
7 7 7 7 7 7 9 10 10 8 8 6 4 5 4 4 3 2 2 2 2 3 3 3 3 3 4 3 4 6 7 6 5 5 6 7 8 9 11 13 15 15 15
6 6 6 6 7 7 9 9 9 9 8 8 6 4 5 4 4 3 3 2 1 2 2 4 3 2 3 3 3 4 6 5 5 4 5 5 6 7 8 11 13 14 15
5 6 6 6 6 6 8 9 9 9 9 9 7 6 5 4 5 4 4 3 2 2 2 2 2 2 2 2 4 6 6 5 5 4 4 4 4 5 6 8 10 12 13
6 7 6 6 6 6 7 7 7 8 9 9 8 6 6 5 4 4 4 3 2 2 1 1 0 1 2 2 2 5 4 4 4 5 5 5 5 5 5 6 7 8 10
6 8 7 7 7 7 6 6 6 7 6 8 8 7 5 5 4 4 4 3 2 0 1 1 1 1 2 2 2 3 0 2 3 5 6 6 6 6 6 5 6 6 7
6 8 8 7 6 6 5 5 4 4 4 5 6 6 5 4 3 3 3 3 4 3 1 0 1 2 2 2 3 2 1 2 3 4 5 6 6 6 6 6 6 6 6
7 8 8 7 6 5 4 3 3 3 3 3 3 5 4 3 3 3 3 3 3 4 3 0 1 2 3 4 5 3 3 5 4 3 3 4 5 5 6 6 7 7 7
7 7 7 6 5 3 2 1 1 2 4 4 4 6 6 5 4 3 3 3 3 4 5 2 2 3 4 5 4 4 4 4 3 5 3 2 3 5 6 6 7 7 8
6 7 6 5 4 2 0 1 3 3 5 6 5 7 7 6 6 5 4 5 4 4 5 5 3 4 5 4 4 5 5 5 3 5 6 4 3 4 5 6 7 8 8
6 6 5 4 3 3 3 3 4 6 6 6 7 8 7 8 7 5 6 5 4 5 5 6 4 3 3 4 4 4 5 4 4 5 5 5 4 4 5 6 7 8 9
5 6 5 4 4 4 5 6 8 9 9 9 9 9 8 8 8 7 7 6 7 8 7 6 5 3 3 3 3 4 4 4 3 4 5 5 5 5 6 6 6 7 8
4 4 5 6 6 5 6 8 8 10 10 10 10 9 9 11 10 8 7 6 8 7 6 6 4 4 3 4 3 2 3 3 3 3 4 4 3 3 4 5 6 7 8
2 4 5 6 7 6 8 11 10 9 9 10 9 7 9 10 12 12 12 11 9 8 6 5 3 3 2 2 2 2 2 3 4 4 3 4 3 3 3 3 5 7 7
1 3 4 5 6 7 10 11 11 8 8 7 6 6 7 8 8 8 11 13 11 10 8 5 4 2 1 0 1 3 2 1 2 4 2 3 3 4 4 4 6 6 7
2 2 2 3 4 5 8 9 10 8 8 7 6 7 7 6 6 7 8 8 7 6 6 4 3 1 1 1 1 1 1 2 3 3 2 2 4 4 5 4 6 7 8
3 2 3 3 4 3 6 7 8 7 7 6 6 6 7 7 9 11 9 8 7 5 7 9 7 7 7 5 3 3 3 3 3 3 2 2 4 4 4 4 4 7 8
5 4 3 3 4 3 4 6 8 6 6 5 5 5 8 8 10 10 7 7 6 4 4 6 7 7 6 6 7 3 2 2 1 3 3 3 3 3 5 4 3 4 5
Wind_Direction
221 222 224 222 219 213 212 215 222 228 230 235 237 237 240 237 235 233 240 241 235 230 228 225 223 224 225 226 226 226 227 229 228 224 222 223 223 222 220 219 218 215 213
221 223 224 220 216 210 212 214 218 223 228 230 234 235 236 236 238 239 236 239 234 230 230 231 228 227 228 228 229 229 228 229 228 224 222 223 223 223 221 219 218 216 215
220 223 224 220 215 209 209 213 220 222 228 229 234 237 238 238 242 245 246 237 235 235 232 233 233 232 231 231 231 230 229 229 228 225 223 222 222 221 219 218 218 216 215
219 221 227 226 214 202 202 205 206 210 222 225 230 237 239 242 253 256 255 249 238 244 242 239 237 236 234 234 234 232 229 227 226 225 222 221 221 220 219 218 217 216 215
224 221 228 228 216 209 207 213 208 202 216 225 231 236 236 233 249 261 262 256 245 241 242 250 245 240 237 236 236 235 231 229 226 225 223 221 220 219 218 217 217 215 214
228 224 231 231 222 220 220 217 222 218 217 219 244 253 247 241 242 245 252 257 249 243 237 244 246 245 239 237 236 237 236 232 228 227 225 222 220 216 215 216 217 216 214
238 227 231 225 218 220 225 219 219 226 230 202 207 261 266 247 241 241 241 249 249 242 231 231 227 230 235 234 236 238 238 237 232 228 225 222 221 217 215 215 216 217 217
251 244 227 225 220 221 227 226 219 222 225 197 189 203 267 287 258 243 236 235 237 235 226 228 227 220 215 216 231 234 237 238 235 231 227 223 221 219 217 217 216 217 218
260 251 237 230 225 217 223 224 221 221 226 216 200 184 197 229 262 272 238 235 226 230 237 229 227 226 220 210 217 230 233 234 232 231 228 226 223 222 221 220 219 217 217
278 267 254 241 233 224 224 222 218 219 219 222 214 215 211 186 193 261 279 256 246 235 240 249 231 227 219 201 201 205 215 217 221 228 230 229 227 226 224 224 223 221 219
291 285 273 256 244 236 232 228 222 216 215 218 209 202 215 216 204 204 246 266 276 257 238 238 224 220 208 178 176 186 190 193 198 214 226 233 236 237 235 233 235 232 226
302 298 294 280 265 251 240 233 225 221 221 222 219 208 196 190 195 192 212 224 234 254 241 236 213 204 190 166 167 167 172 177 192 209 226 236 243 246 248 245 244 243 236
308 303 302 291 281 266 252 236 227 226 222 221 219 215 209 206 181 173 185 198 219 251 302 10 2 142 151 131 137 163 172 186 210 226 234 235 235 238 243 249 253 254 250
301 302 300 294 285 274 263 243 233 230 223 219 217 206 202 200 183 170 168 164 177 299 25 26 28 75 125 123 129 138 138 247 249 245 241 236 232 233 236 241 251 260 264
306 309 305 299 289 278 267 247 237 230 218 212 205 196 185 173 166 165 161 158 157 154 127 5 73 41 80 97 94 88 14 317 300 270 254 244 236 234 235 240 247 255 262
310 309 309 301 291 280 266 246 233 206 199 190 173 155 149 144 142 148 156 160 159 142 135 134 77 57 50 71 59 47 16 5 355 327 287 257 244 238 237 243 249 254 260
313 310 309 307 300 283 267 240 207 170 152 145 141 138 133 130 127 127 120 116 110 117 120 80 46 46 58 52 32 32 29 28 9 15 359 302 260 250 248 252 256 259 265
316 316 318 320 325 315 292 156 149 125 125 129 125 124 122 117 107 104 102 98 98 106 118 108 61 45 49 47 39 35 23 23 5 16 10 355 316 280 265 261 262 266 271
321 326 330 345 4 20 51 80 94 96 97 101 109 111 110 108 101 100 98 94 90 90 96 104 87 53 44 34 33 20 14 3 3 11 8 354 332 313 290 274 270 272 275
334 348 355 14 34 49 65 72 80 82 80 79 82 86 90 95 98 95 89 88 92 91 89 92 84 54 38 15 35 15 0 349 351 1 354 343 339 329 314 299 283 280 282
351 8 23 31 40 54 69 78 81 85 82 78 73 74 79 84 84 85 94 94 94 94 90 87 79 60 36 29 17 353 359 334 333 354 341 335 338 334 319 306 298 296 295
7 29 42 46 47 56 76 83 89 86 85 85 80 76 76 73 77 79 86 91 98 104 103 95 85 78 49 27 4 11 9 12 342 332 345 319 333 326 313 302 304 307 308
69 62 55 62 62 56 68 82 88 91 89 90 90 83 82 72 71 78 77 75 73 82 102 115 106 104 101 29 41 23 16 5 289 297 338 311 318 315 308 312 315 313 315
149 116 93 84 81 71 78 89 93 90 91 89 89 91 90 75 76 88 86 76 67 61 68 80 105 127 146 155 143 164 251 312 304 314 13 323 308 304 306 312 319 321 322
161 150 137 124 106 81 84 99 100 95 93 85 83 87 95 87 88 92 89 82 64 39 51 69 81 81 84 88 94 62 30 30 349 316 345 341 304 308 308 310 319 327 327
167 158 152 147 134 126 115 114 116 111 105 96 80 76 87 97 93 91 92 90 76 40 42 56 52 45 48 48 54 70 89 62 1 322 317 338 312 330 322 307 314 325 327